Weather History for KPWC - April, 2014

Change the Weather History Date:

Monday, April 28, 2014

  Actual Average Record
Temperature  
Mean Temperature 35 °F -  
Max Temperature 39 °F 59 °F 89 °F (2004)
Min Temperature 33 °F 33 °F 24 °F (2008)
Degree Days  
Heating Degree Days 30    
Moisture  
Dew Point 34 °F    
Average Humidity 91    
Maximum Humidity 100    
Minimum Humidity 70    
Precipitation  
Precipitation 0.47 in - - ()
Sea Level Pressure  
Sea Level Pressure 29.79 in    
Wind  
Wind Speed 19 mph (East)    
Max Wind Speed 24 mph    
Max Gust Speed 37 mph    
Visibility 8 miles    
Events Rain    
Averages and records for this station are not official NWS values.
T = Trace of Precipitation, MM = Missing Value Source: NWS Daily Summary

Daily Weather History Graph

Daily Weather History Graph

Search for Another Location

Airport or City:

Trip Planner

Search our weather history database for the weather conditions in past years. The results will help you decide how hot, cold, wet, or windy it might be!

Date:

Astronomy

Apr. 28, 2014 Rise Set
Actual Time 6:07 AM CDT 8:23 PM CDT
Civil Twilight 5:34 AM CDT 8:56 PM CDT
Nautical Twilight 4:52 AM CDT 9:38 PM CDT
Astronomical Twilight 4:06 AM CDT 10:25 PM CDT
Moon 5:49 AM CDT 8:00 PM CDT
Length of Visible Light 15h 22m
Length of Day
14h 16m
Waning Crescent, 0% of the Moon is Illuminated
Apr 28
Waning Crescent
Apr 29
New
May 6
First Quarter
May 14
Full
May 21
Last Quarter

Hourly Weather History & Observations

Time (CDT) Temp. Windchill Dew Point Humidity Pressure Visibility Wind Dir Wind Speed Gust Speed Precip Events Conditions
12:13 AM 35.6 °F 24.2 °F 32.0 °F 87% 29.79 in 10.0 mi East 21.9 mph 29.9 mph N/A   Overcast
12:33 AM 35.6 °F 24.5 °F 32.0 °F 87% 29.79 in 10.0 mi ESE 20.7 mph 28.8 mph N/A   Overcast
1:12 AM 35.6 °F 24.5 °F 32.0 °F 87% 29.80 in 10.0 mi East 20.7 mph 32.2 mph N/A   Overcast
1:32 AM 35.6 °F 25.9 °F 32.0 °F 87% 29.80 in 10.0 mi East 16.1 mph 25.3 mph N/A   Overcast
1:53 AM 35.6 °F 26.6 °F 32.0 °F 87% 29.80 in 10.0 mi East 13.8 mph - N/A   Overcast
2:13 AM 37.4 °F 28.9 °F 32.0 °F 81% 29.80 in 10.0 mi East 13.8 mph 26.5 mph N/A   Overcast
2:32 AM 37.4 °F 27.2 °F 32.0 °F 81% 29.80 in 10.0 mi East 19.6 mph 27.6 mph N/A   Overcast
2:53 AM 35.6 °F 26.2 °F 33.8 °F 93% 29.81 in 4.0 mi ESE 15.0 mph 25.3 mph 0.02 in Rain Rain
3:13 AM 35.6 °F 26.2 °F 33.8 °F 93% 29.80 in 5.0 mi East 15.0 mph 21.9 mph 0.03 in Rain Light Rain
3:33 AM 35.6 °F 26.2 °F 33.8 °F 93% 29.79 in 5.0 mi East 15.0 mph 25.3 mph 0.05 in Rain Light Rain
3:53 AM 33.8 °F 24.8 °F 33.8 °F 100% 29.79 in 10.0 mi East 12.7 mph 26.5 mph N/A Rain Light Rain
4:13 AM 35.6 °F 25.2 °F 33.8 °F 93% 29.78 in 7.0 mi East 18.4 mph 23.0 mph N/A Rain Light Rain
4:32 AM 35.6 °F 25.5 °F 33.8 °F 93% 29.78 in 10.0 mi East 17.3 mph 23.0 mph N/A Rain Rain
5:12 AM 37.4 °F 27.8 °F 33.8 °F 87% 29.76 in 10.0 mi East 17.3 mph 27.6 mph N/A Rain Light Rain
5:33 AM 37.4 °F 28.2 °F 33.8 °F 87% 29.76 in 10.0 mi East 16.1 mph 27.6 mph N/A   Overcast
5:51 AM 37.4 °F 27.8 °F 33.8 °F 87% 29.75 in 10.0 mi East 17.3 mph 28.8 mph N/A   Overcast
6:12 AM 37.4 °F 27.2 °F 33.8 °F 87% 29.75 in 10.0 mi East 19.6 mph 27.6 mph N/A   Overcast
6:33 AM 37.4 °F 26.9 °F 33.8 °F 87% 29.76 in 10.0 mi East 20.7 mph 26.5 mph N/A   Overcast
6:53 AM 37.4 °F 26.6 °F 33.8 °F 87% 29.75 in 10.0 mi East 21.9 mph 29.9 mph N/A   Overcast
7:12 AM 37.4 °F 26.4 °F 33.8 °F 87% 29.75 in 10.0 mi East 23.0 mph 33.4 mph N/A   Overcast
7:33 AM 37.4 °F 27.2 °F 33.8 °F 87% 29.75 in 10.0 mi East 19.6 mph 36.8 mph N/A   Overcast
7:53 AM 37.4 °F 26.1 °F 33.8 °F 87% 29.75 in 7.0 mi East 24.2 mph 35.7 mph N/A   Drizzle
8:13 AM 37.4 °F 26.9 °F 33.8 °F 87% 29.76 in 5.0 mi East 20.7 mph 34.5 mph N/A Rain Rain
8:32 AM 37.4 °F 26.1 °F 33.8 °F 87% 29.75 in 4.0 mi East 24.2 mph 32.2 mph N/A Rain Light Rain
9:13 AM 37.4 °F 27.5 °F 33.8 °F 87% 29.74 in 4.0 mi East 18.4 mph 29.9 mph 0.02 in Rain Light Rain
9:32 AM 37.4 °F 26.4 °F 33.8 °F 87% 29.74 in 7.0 mi East 23.0 mph 31.1 mph 0.02 in Rain Light Rain
9:53 AM 37.4 °F 27.2 °F 33.8 °F 87% 29.74 in 5.0 mi East 19.6 mph 33.4 mph 0.01 in Rain Light Rain
10:13 AM 37.4 °F 27.8 °F 33.8 °F 87% 29.74 in 3.0 mi East 17.3 mph 27.6 mph 0.03 in Rain Rain
10:33 AM 37.4 °F 26.1 °F 33.8 °F 87% 29.74 in 10.0 mi East 24.2 mph 33.4 mph 0.04 in Rain Light Rain
10:53 AM 37.4 °F 26.6 °F 33.8 °F 87% 29.73 in 10.0 mi East 21.9 mph 29.9 mph N/A Rain Light Rain
11:12 AM 37.4 °F 26.9 °F 33.8 °F 87% 29.73 in 4.0 mi East 20.7 mph 27.6 mph 0.02 in Rain Light Rain
11:32 AM 37.4 °F 26.1 °F 33.8 °F 87% 29.74 in 10.0 mi East 24.2 mph 35.7 mph 0.03 in Rain Light Rain
11:53 AM 35.6 °F 24.0 °F 35.6 °F 100% 29.76 in 5.0 mi East 23.0 mph 28.8 mph 0.01 in   Overcast
12:13 PM 35.6 °F 25.5 °F 35.6 °F 100% 29.77 in 5.0 mi East 17.3 mph 25.3 mph 0.02 in Rain Light Rain
12:32 PM 35.6 °F 26.2 °F 35.6 °F 100% 29.76 in 4.0 mi East 15.0 mph 28.8 mph 0.05 in Rain Light Rain
12:53 PM 35.6 °F 24.0 °F 35.6 °F 100% 29.76 in 4.0 mi East 23.0 mph 33.4 mph 0.01 in Rain Light Rain
1:12 PM 35.6 °F 24.8 °F 33.8 °F 93% 29.76 in 5.0 mi East 19.6 mph 33.4 mph 0.04 in Rain Rain
1:33 PM 35.6 °F 25.9 °F 35.6 °F 100% 29.77 in 3.0 mi East 16.1 mph 21.9 mph 0.08 in Rain Rain
1:52 PM 35.6 °F 23.7 °F 35.6 °F 100% 29.77 in 3.0 mi East 24.2 mph 33.4 mph 0.01 in Rain Rain
2:13 PM 35.6 °F 24.8 °F 35.6 °F 100% 29.78 in 3.0 mi East 19.6 mph 26.5 mph 0.06 in Rain Rain
2:53 PM 35.6 °F 25.2 °F 33.8 °F 93% 29.80 in 2.5 mi East 18.4 mph 26.5 mph 0.02 in Rain Rain
3:32 PM 35.6 °F 26.2 °F 35.6 °F 100% 29.79 in 4.0 mi East 15.0 mph 21.9 mph 0.08 in Rain Light Rain
3:53 PM 35.6 °F 25.5 °F 35.6 °F 100% 29.79 in 5.0 mi East 17.3 mph 26.5 mph N/A Rain Light Rain
4:13 PM 35.6 °F 25.2 °F 35.6 °F 100% 29.79 in 5.0 mi East 18.4 mph 28.8 mph 0.01 in Rain Light Rain
4:32 PM 37.4 °F 27.2 °F 35.6 °F 93% 29.79 in 10.0 mi East 19.6 mph 27.6 mph 0.02 in Rain Rain
5:13 PM 37.4 °F 26.6 °F 35.6 °F 93% 29.79 in 10.0 mi East 21.9 mph 33.4 mph N/A Rain Light Rain
5:33 PM 37.4 °F 28.2 °F 35.6 °F 93% 29.78 in 10.0 mi East 16.1 mph 24.2 mph N/A   Drizzle
5:53 PM 35.6 °F 25.5 °F 35.6 °F 100% 29.81 in 10.0 mi East 17.3 mph 28.8 mph N/A   Drizzle
6:13 PM 35.6 °F 25.2 °F 35.6 °F 100% 29.83 in 7.0 mi East 18.4 mph 29.9 mph N/A Rain Rain
6:33 PM 35.6 °F 25.9 °F 33.8 °F 93% 29.84 in 7.0 mi East 16.1 mph 23.0 mph N/A Rain Rain
6:53 PM 35.6 °F 26.6 °F 33.8 °F 93% 29.84 in 7.0 mi East 13.8 mph 27.6 mph 0.01 in Rain Rain
7:12 PM 35.6 °F 25.5 °F 35.6 °F 100% 29.84 in 7.0 mi East 17.3 mph 25.3 mph 0.01 in Rain Rain
7:33 PM 35.6 °F 26.2 °F 35.6 °F 100% 29.85 in 4.0 mi East 15.0 mph 24.2 mph 0.01 in   Drizzle
7:53 PM 35.6 °F 26.2 °F 35.6 °F 100% 29.85 in 7.0 mi ENE 15.0 mph 21.9 mph N/A   Drizzle
8:13 PM 35.6 °F 25.2 °F 35.6 °F 100% 29.85 in 10.0 mi East 18.4 mph 24.2 mph N/A   Overcast
8:33 PM 35.6 °F 25.9 °F 35.6 °F 100% 29.86 in 10.0 mi ENE 16.1 mph 21.9 mph N/A Rain Light Rain
8:53 PM 35.6 °F 25.2 °F 33.8 °F 93% 29.86 in 10.0 mi East 18.4 mph 26.5 mph N/A   Overcast
9:13 PM 35.6 °F 25.5 °F 33.8 °F 93% 29.88 in 10.0 mi East 17.3 mph 23.0 mph N/A   Overcast
10:12 PM 37.4 °F 28.9 °F 30.2 °F 75% 29.88 in 10.0 mi ENE 13.8 mph 19.6 mph N/A   Overcast
10:32 PM 37.4 °F 30.3 °F 30.2 °F 75% 29.88 in 10.0 mi ENE 10.4 mph 24.2 mph N/A   Overcast
10:52 PM 37.4 °F 29.3 °F 30.2 °F 75% 29.88 in 10.0 mi East 12.7 mph 21.9 mph N/A   Overcast
11:13 PM 37.4 °F 28.2 °F 30.2 °F 75% 29.88 in 10.0 mi East 16.1 mph 19.6 mph N/A   Overcast
11:33 PM 37.4 °F 28.2 °F 30.2 °F 75% 29.88 in 10.0 mi East 16.1 mph 21.9 mph N/A   Overcast
11:52 PM 39.2 °F 30.8 °F 30.2 °F 70% 29.88 in 10.0 mi ENE 15.0 mph 23.0 mph N/A   Overcast